This is the latest recevied weather packets stored in our database for station/object K0CPM-2. If no packets are shown the sender has not sent any weather packets the latest 10 day(s).
| Time | Temp. | Humidity | Pressure | Rain* | Wind** | Luminosity | Snow |
|---|---|---|---|---|---|---|---|
| 1778256923 | 24.44° C | 84% | 1010.9 hPa | 0 mm | - | - | - |
| 1778256024 | 23.33° C | 86% | 1011.2 hPa | 0 mm | - | - | - |
| 1778255115 | 22.78° C | 87% | 1011.5 hPa | 0 mm | - | - | - |
| 1778254224 | 22.78° C | 87% | 1011.7 hPa | 0 mm | - | - | - |
| 1778253323 | 22.78° C | 87% | 1011.4 hPa | 0 mm | - | - | - |
| 1778252414 | 22.22° C | 86% | 1011.3 hPa | 0 mm | - | - | - |
| 1778251514 | 22.78° C | 85% | 1011.5 hPa | 0 mm | - | - | - |
| 1778250613 | 23.33° C | 83% | 1011.2 hPa | 0 mm | - | - | - |
| 1778249710 | 22.78° C | 85% | 1011 hPa | 0 mm | - | - | - |
| 1778248809 | 21.67° C | 86% | 1011.3 hPa | 0 mm | - | - | - |
| 1778247908 | 21.67° C | 86% | 1011.4 hPa | 0 mm | - | - | - |
| 1778247008 | 21.11° C | 86% | 1011.4 hPa | 0 mm | - | - | - |
| 1778246107 | 21.11° C | 87% | 1011.4 hPa | 0 mm | - | - | - |
| 1778245206 | 21.11° C | 87% | 1011.8 hPa | 0 mm | - | - | - |
| 1778244306 | 21.11° C | 88% | 1012.2 hPa | 0 mm | - | - | - |
| 1778243406 | 21.11° C | 88% | 1012.1 hPa | 0 mm | - | - | - |
| 1778242503 | 21.11° C | 88% | 1011.8 hPa | 0 mm | - | - | - |
| 1778241604 | 21.11° C | 88% | 1011.2 hPa | 0 mm | - | - | - |
| 1778240702 | 21.11° C | 87% | 1011.2 hPa | 0 mm | - | - | - |
| 1778239802 | 21.11° C | 87% | 1011.4 hPa | 0 mm | - | - | - |
| 1778238961 | 21.11° C | 88% | 1012 hPa | 0 mm | - | - | - |
| 1778238088 | 20.56° C | 89% | 1011.7 hPa | 0 mm | - | - | - |
| 1778237164 | 20.56° C | 89% | 1011.6 hPa | 0 mm | - | - | - |
| 1778236259 | 20.56° C | 89% | 1011 hPa | 0 mm | - | - | - |
| 1778235360 | 20.56° C | 89% | 1010.7 hPa | 0 mm | - | - | - |
* Rain latest hour (hover to see other rain measurements)
** Current wind speed in m/s (hover to see current wind gust speed)